Miscellaneous Local Product
Issued by NWS North Platte, NE

Home | Current Version | Previous Version | Text Only | Print | Product List | Glossary On
Versions: 1 2 3 4 5 6 7 8 9 10 11 12 13 14 15 16 17 18 19 20 21 22 23 24 25 26 27 28 29 30 31 32 33 34 35 36 37 38 39 40 41 42 43 44 45 46 47 48 49 50
000
AXUS43 KLBF 240710
MISLBF


WESTERN AND NORTH CENTRAL NEBRASKA HOURLY WEATHER ROUNDUP
NATIONAL WEATHER SERVICE NORTH PLATTE NE
200 AM CDT SAT SEP 24 2016

NOTE: "FAIR" INDICATES FEW OR NO CLOUDS BELOW 12,000 FEET WITH NO
SIGNIFICANT WEATHER AND/OR OBSTRUCTIONS TO VISIBILITY.

NOTE: STATIONS NOT REPORTING VARIABLES SUCH AS SKY/WEATHER OR
PRESSURE ARE PROVIDED BY RAWS AND APRS NETWORKS AND ARE NOT UNDER
NATIONAL WEATHER SERVICE QUALITY CONTROL.

...OBSERVATIONS IN AND NEAR THE EASTERN PANHANDLE OF NEBRASKA...

CITY           SKY/WX    TMP DP  RH WIND       PRES   REMARKS
PINE RIDGE     CLOUDY    54  50  86 W15G22    29.86F
CHADRON        LGT RAIN  52  47  83 W14       29.86F
ALLIANCE       CLOUDY    50  45  83 NW16      29.89F
SIDNEY         LGT RAIN  49  46  90 N17       29.89F
CRESCENT LAKE    N/A     50  46  85 NW13G25     N/A
$$

...OBSERVATIONS IN NORTHERN NEBRASKA AND FAR SOUTHERN SOUTH DAKOTA...

CITY           SKY/WX    TMP DP  RH WIND       PRES   REMARKS
WINNER         FAIR      75  61  61 SE17      29.78R
VALENTINE      CLEAR     58  51  78 W6        29.80R
THEDFORD       CLOUDY    74  60  62 S17G28    29.79F
AINSWORTH      CLEAR     70  61  72 S20G25    29.80S
O`NEILL        CLEAR     73  62  68 SE17G24   29.86F
ORD            LGT RAIN  72  61  68 SE17G24   29.85S
BROKEN BOW     CLEAR     69  61  75 SE13      29.84S
VALENTINE NWR    N/A     67  58  72 SE8         N/A
BUTTE            N/A     73  63  71 SE20G28     N/A
HALSEY           N/A     72  58  60 S12G23      N/A
EWING            N/A     71  64  78 S7          N/A
$$

...OBSERVATIONS IN SOUTHWEST NEBRASKA AND FAR NORTHEAST COLORADO...

CITY           SKY/WX    TMP DP  RH WIND       PRES   REMARKS
HOLYOKE        FAIR      55  52  88 NE18      29.85F
IMPERIAL       CLOUDY    71  54  54 W10       29.84R
OGALLALA       CLOUDY    56  52  86 NW17G31   29.88R
NORTH PLATTE   TSTM      72  63  73 S17G35    29.80F
MCCOOK         CLOUDY    74  63  68 S17G26    29.81F
LEXINGTON      CLEAR     72  62  71 SE15      29.83F
STAPLETON        N/A     70  60  70 CALM        N/A
GOTHENBURG       N/A     72  56  57 SE9         N/A
CALLAWAY         N/A     67  60  79 S14         N/A
$$

...OBSERVATIONS IN CENTRAL LINCOLN COUNTY AREA...

CITY           SKY/WX    TMP DP  RH WIND       PRES   REMARKS
N.P. AIRPORT   TSTM      72  63  73 S17G35    29.80F
N.P. DOWNTOWN    N/A     69  64  84 S7G20       N/A
N.P. SOUTHEAST   N/A     69  64  83 S12G22      N/A
N.P. HILLCREST   N/A     67  65  93 S20G31      N/A
$$

...SOME OBSERVATIONS FROM AROUND THE REGION...

CITY           SKY/WX    TMP DP  RH WIND       PRES   REMARKS
DENVER         MOCLDY    51  27  39 E10       29.94R
LARAMIE        LGT SNOW  32  32 100 N9        30.01F FOG     WCI  24
CHEYENNE       RAIN      38  35  89 NW16G25   30.00R FOG     WCI  29
SCOTTSBLUFF    CLOUDY    50  48  93 NW7       29.92F
RAPID CITY     CLOUDY    60  58  92 NW8       29.79S
BISMARCK       CLOUDY    63  62  97 N8        29.80F
PIERRE         CLEAR     69  58  67 E12       29.74R
SIOUX FALLS    CLEAR     71  64  78 SE15      29.93S
OMAHA          CLEAR     73  64  73 SE12      29.96S
GRAND ISLAND   CLEAR     72  62  71 S13       29.90S
KANSAS CITY    CLEAR     71  64  78 SE10      30.01S
WICHITA        PTCLDY    73  67  81 SE9       29.94R
OKLAHOMA CITY  CLEAR     76  69  79 S14       29.95S
DALLAS         CLEAR     81  71  71 S14       29.97R
AMARILLO       PTCLDY    73  61  65 S22       29.96R
DODGE CITY     MOCLDY    73  66  78 S21G28    29.90S
HAYS           PTCLDY    73  61  64 S15       29.88S
GOODLAND       CLOUDY    60  50  69 S12       29.87F
$$




USA.gov is the U.S. government's official web portal to all federal, state and local government web resources and services.